Date String (YYYY-MM-DD hh:mm:ss) UTC,Instrument flags,absolute air pressure of the measurement (hPa),sample flow rate (lpm),inlet stack bypass flow (lpm),air temperature of the measurement (°C),ambient temperature measured by the external sensor (°C),aerosol sample conditioner tube jacket temperature (°C),OPC LED temperature (°C),internal box temperature (°C),relative humidity of the measurement (%),span deviation,mass concentration of particles derived from Lorenz-Mie calculation of OPC scattering (μg/m³),mass concentration of particles derived from Lorenz-Mie calculation of OPC scattering (μg/m³),mass concentration of particles derived from Lorenz-Mie calculation of OPC scattering (μg/m³)
DateTimeUTC,F1_M11,P_M11,Q1_M11,Q2_M11,T1_M11,T2_M11,T3_M11,T4_M11,T5_M11,U1_M11,ZSPAN_M11,X0_M11,X2_M11,X1_M11
2023-11-14 07:00:00,SystemResetWarning,0830.9,5.00,000.00,027.5,026.3,000.0,035.9,028.9,7.4,0000.0,0010.50,0003.47,0002.65
2023-11-14 07:01:00,SystemResetWarning,0831.1,5.01,000.00,027.4,026.3,000.0,035.9,028.8,7.4,0000.0,0010.44,0003.45,0002.64
2023-11-14 07:02:00,SystemResetWarning,0831.1,5.00,000.00,027.4,026.3,000.0,035.9,028.8,7.4,0000.0,0010.57,0003.44,0002.65
2023-11-14 07:03:00,SystemResetWarning,0831.0,5.00,000.00,027.4,026.3,000.0,035.9,028.8,7.4,0000.0,0010.76,0003.42,0002.65
2023-11-14 07:04:00,SystemResetWarning,0831.0,5.00,000.00,027.4,026.3,000.0,035.9,028.8,7.4,0000.0,0010.51,0003.41,0002.66
2023-11-14 07:05:00,SystemResetWarning,0831.2,5.00,000.00,027.4,026.3,000.0,035.9,028.8,7.7,0000.0,0010.63,0003.42,0002.68
2023-11-14 07:06:00,SystemResetWarning,0831.1,5.00,000.00,027.4,026.3,000.0,035.9,028.8,7.7,0000.0,0010.50,0003.44,0002.71
2023-11-14 07:07:00,SystemResetWarning,0831.1,5.00,000.00,027.4,026.3,000.0,035.9,028.8,7.7,0000.0,0010.41,0003.45,0002.72
2023-11-14 07:08:00,SystemResetWarning,0831.2,5.00,000.00,027.4,026.4,000.0,035.9,028.8,7.7,0000.0,0010.89,0003.47,0002.74
2023-11-14 07:09:00,SystemResetWarning,0831.1,4.99,000.00,027.4,026.4,000.0,035.9,028.8,7.6,0000.0,0010.56,0003.47,0002.76
2023-11-14 07:10:00,SystemResetWarning,0831.1,5.00,000.00,027.4,026.4,000.0,035.8,028.9,7.5,0000.0,0009.92,0003.46,0002.77
2023-11-14 07:11:00,SystemResetWarning,0831.2,5.00,000.00,027.4,026.4,000.0,035.8,028.8,7.6,0000.0,0010.05,0003.46,0002.79
2023-11-14 07:12:00,SystemResetWarning,0831.1,5.00,000.00,027.4,026.3,000.0,035.8,028.8,7.8,0000.0,0010.38,0003.50,0002.81
2023-11-14 07:13:00,SystemResetWarning,0831.1,5.00,000.00,027.4,026.3,000.0,035.8,028.7,7.9,0000.0,0010.96,0003.51,0002.81
2023-11-14 07:14:00,SystemResetWarning,0831.1,5.00,000.00,027.4,026.3,000.0,035.8,028.7,7.7,0000.0,0010.95,0003.51,0002.82
2023-11-14 07:15:00,SystemResetWarning,0831.1,5.00,000.00,027.4,026.2,000.0,035.8,028.7,7.3,0000.0,0010.43,0003.50,0002.81
2023-11-14 07:16:00,SystemResetWarning,0831.1,5.00,000.00,027.4,026.2,000.0,035.8,028.7,7.3,0000.0,0010.46,0003.48,0002.79
2023-11-14 07:17:00,SystemResetWarning,0831.2,5.00,000.00,027.4,026.2,000.0,035.8,028.7,7.5,0000.0,0011.13,0003.45,0002.78
2023-11-14 07:18:00,SystemResetWarning,0831.1,5.01,000.00,027.3,026.2,000.0,035.8,028.7,8.0,0000.0,0012.51,0003.50,0002.82
2023-11-14 07:19:00,SystemResetWarning,0831.1,5.00,000.00,027.3,026.2,000.0,035.8,028.7,7.9,0000.0,0012.52,0003.58,0002.90
2023-11-14 07:20:00,SystemResetWarning,0831.1,4.99,000.00,027.3,026.2,000.0,035.8,028.7,7.4,0000.0,0013.03,0003.65,0002.98
2023-11-14 07:21:00,SystemResetWarning,0831.1,5.01,000.00,027.3,026.2,000.0,035.8,028.7,7.2,0000.0,0013.04,0003.68,0003.01
2023-11-14 07:22:00,SystemResetWarning,0831.1,5.00,000.00,027.3,026.3,000.0,035.8,028.8,7.0,0000.0,0012.80,0003.71,0003.04
2023-11-14 07:23:00,SystemResetWarning,0831.1,5.00,000.00,027.3,026.3,000.0,035.8,028.8,7.0,0000.0,0013.07,0003.75,0003.08
2023-11-14 07:24:00,SystemResetWarning,0831.1,5.00,000.00,027.3,026.3,000.0,035.8,028.8,7.3,0000.0,0012.57,0003.84,0003.14
2023-11-14 07:25:00,SystemResetWarning,0831.1,5.00,000.00,027.3,026.3,000.0,035.8,028.8,7.5,0000.0,0012.22,0003.97,0003.22
2023-11-14 07:26:00,SystemResetWarning,0831.1,5.00,000.00,027.3,026.2,000.0,035.8,028.7,7.5,0000.0,0012.39,0004.07,0003.27
2023-11-14 07:27:00,SystemResetWarning,0831.1,5.00,000.00,027.3,026.2,000.0,035.7,028.7,7.5,0000.0,0012.37,0004.13,0003.30
2023-11-14 07:28:00,SystemResetWarning,0831.1,5.00,000.00,027.3,026.2,000.0,035.7,028.7,7.5,0000.0,0011.65,0004.13,0003.29
2023-11-14 07:29:00,SystemResetWarning,0831.1,4.99,000.00,027.3,026.3,000.0,035.7,028.7,7.4,0000.0,0010.11,0004.07,0003.27
2023-11-14 07:30:00,SystemResetWarning,0831.2,4.99,000.00,027.3,026.3,000.0,035.7,028.7,7.6,0000.0,0010.04,0003.98,0003.23
2023-11-14 07:31:00,SystemResetWarning,0831.2,5.00,000.00,027.3,026.3,000.0,035.7,028.7,7.4,0000.0,0009.95,0003.94,0003.21
2023-11-14 07:32:00,SystemResetWarning,0831.2,5.00,000.00,027.3,026.3,000.0,035.7,028.8,7.4,0000.0,0010.08,0003.94,0003.22
2023-11-14 07:33:00,SystemResetWarning,0831.1,5.00,000.00,027.3,026.3,000.0,035.7,028.7,7.7,0000.0,0010.37,0003.96,0003.22
2023-11-14 07:34:00,SystemResetWarning,0831.1,5.00,000.00,027.3,026.3,000.0,035.7,028.7,7.5,0000.0,0010.31,0003.95,0003.21
2023-11-14 07:35:00,SystemResetWarning,0831.1,5.00,000.00,027.3,026.3,000.0,035.7,028.7,7.7,0000.0,0010.54,0003.92,0003.17
2023-11-14 07:36:00,SystemResetWarning,0831.1,5.01,000.00,027.3,026.3,000.0,035.7,028.7,7.8,0000.0,0010.90,0003.86,0003.13
2023-11-14 07:37:00,SystemResetWarning,0831.1,5.00,000.00,027.3,026.3,000.0,035.7,028.7,7.9,0000.0,0011.24,0003.79,0003.09
2023-11-14 07:38:00,SystemResetWarning,0831.1,5.00,000.00,027.3,026.3,000.0,035.7,028.7,7.7,0000.0,0011.16,0003.77,0003.08
2023-11-14 07:39:00,SystemResetWarning,0831.2,5.00,000.00,027.3,026.3,000.0,035.7,028.7,7.2,0000.0,0011.48,0003.83,0003.14
2023-11-14 07:40:00,SystemResetWarning,0831.1,5.00,000.00,027.3,026.3,000.0,035.7,028.8,7.1,0000.0,0012.82,0003.97,0003.20
2023-11-14 07:41:00,SystemResetWarning,0831.1,5.00,000.00,027.3,026.3,000.0,035.7,028.7,7.2,0000.0,0013.05,0004.12,0003.29
2023-11-14 07:42:00,SystemResetWarning,0831.1,5.00,000.00,027.3,026.3,000.0,035.7,028.8,7.2,0000.0,0014.19,0004.28,0003.40
2023-11-14 07:43:00,SystemResetWarning,0831.1,5.00,000.00,027.3,026.3,000.0,035.7,028.7,7.3,0000.0,0014.95,0004.45,0003.52
2023-11-14 07:44:00,SystemResetWarning,0831.1,5.00,000.00,027.3,026.3,000.0,035.7,028.7,7.3,0000.0,0014.89,0004.54,0003.60
2023-11-14 07:45:00,SystemResetWarning,0831.1,5.00,000.00,027.3,026.3,000.0,035.7,028.7,7.3,0000.0,0015.05,0004.51,0003.61
2023-11-14 07:46:00,SystemResetWarning,0831.1,5.00,000.00,027.3,026.3,000.0,035.7,028.7,7.3,0000.0,0014.75,0004.44,0003.59
2023-11-14 07:47:00,SystemResetWarning,0831.0,5.00,000.00,027.3,026.3,000.0,035.7,028.7,7.0,0000.0,0014.29,0004.41,0003.56
2023-11-14 07:48:00,SystemResetWarning,0831.0,5.00,000.00,027.3,026.3,000.0,035.7,028.7,6.8,0000.0,0014.04,0004.39,0003.55
2023-11-14 07:49:00,SystemResetWarning,0830.9,4.99,000.00,027.3,026.2,000.0,035.7,028.7,7.0,0000.0,0014.01,0004.38,0003.54
2023-11-14 07:50:00,SystemResetWarning,0830.9,4.99,000.00,027.3,026.2,000.0,035.7,028.7,6.9,0000.0,0013.76,0004.33,0003.52
2023-11-14 07:51:00,SystemResetWarning,0830.9,5.00,000.00,027.2,026.2,000.0,035.7,028.7,6.3,0000.0,0012.51,0004.21,0003.48
2023-11-14 07:52:00,SystemResetWarning,0830.9,5.01,000.00,027.2,026.2,000.0,035.7,028.7,5.7,0000.0,0011.66,0004.06,0003.41
2023-11-14 07:53:00,SystemResetWarning,0830.9,5.01,000.00,027.2,026.2,000.0,035.7,028.7,6.0,0000.0,0010.63,0003.89,0003.28
2023-11-14 07:54:00,SystemResetWarning,0830.9,4.99,000.00,027.2,026.2,000.0,035.7,028.7,5.8,0000.0,0010.09,0003.66,0003.10
2023-11-14 07:55:00,SystemResetWarning,0830.9,4.99,000.00,027.2,026.1,000.0,035.7,028.7,6.0,0000.0,0009.37,0003.46,0002.88
2023-11-14 07:56:00,SystemResetWarning,0830.8,5.00,000.00,027.2,026.1,000.0,035.7,028.6,6.2,0000.0,0008.66,0003.37,0002.74
2023-11-14 07:57:00,SystemResetWarning,0830.9,5.00,000.00,027.2,026.1,000.0,035.7,028.6,5.8,0000.0,0008.19,0003.33,0002.68
2023-11-14 07:58:00,SystemResetWarning,0830.9,5.00,000.00,027.2,026.1,000.0,035.6,028.6,6.4,0000.0,0007.87,0003.20,0002.54
2023-11-14 07:59:00,SystemResetWarning,0830.9,5.00,000.00,027.2,026.1,000.0,035.6,028.6,6.7,0000.0,0007.33,0003.09,0002.42
